Location: Muenchen
(48.1800°N, 11.5800°E)
Time: 01:13:38
(UTC+01:00)

ISS - Visible Passes

Search period start: 02 February 2015 00:00
Search period end: 12 February 2015 00:00
Orbit: 400 x 408 km, 51.6° (Epoch: 01 February)

Date Brightness Start Highest point End Pass type
(mag) Time Alt. Az. Time Alt. Az. Time Alt. Az.
05 Feb -1.4 19:04:19 10° S 19:05:57 19° SSE 19:05:57 19° SSE visible
06 Feb -1.0 18:13:10 10° SSE 18:14:36 12° SE 18:16:01 10° ESE visible
06 Feb -1.1 19:47:20 10° SW 19:48:41 22° SW 19:48:41 22° SW visible
07 Feb -2.7 18:55:06 10° SW 18:58:10 40° SSE 18:58:37 37° SE visible
08 Feb -1.9 18:03:06 10° SSW 18:05:48 24° SE 18:08:28 10° E visible
08 Feb -2.2 19:38:46 10° WSW 19:41:07 43° W 19:41:07 43° W visible
09 Feb -3.4 18:46:14 10° WSW 18:49:30 75° SSE 18:50:52 32° ENE visible
09 Feb 0.0 20:22:57 10° W 20:23:31 14° WNW 20:23:31 14° WNW visible
10 Feb -2.8 17:53:52 10° SW 17:57:00 46° SSE 18:00:10 10° ENE visible
10 Feb -2.7 19:30:15 10° W 19:33:11 50° NW 19:33:11 50° NW visible
11 Feb -3.2 18:37:34 10° WSW 18:40:49 68° NNW 18:42:47 22° ENE visible
11 Feb -0.4 20:14:25 10° WNW 20:15:25 18° WNW 20:15:25 18° WNW visible
